FENGYUN 3E
Last updated on Mon Jun 22 2026 00:02:46 GMT+0000 (Coordinated Universal Time)
1 49008U 21062A 26172.50017913 .00000183 00000+0 10675-3 0 9999
2 49008 98.7495 175.8605 0002823 78.9678 281.1816 14.19904829257195
Next 0 passes for location: London (51.5072 / 0.1276)
No passes found over London.